This is the latest recevied weather packets stored in our database for station/object WA4OPQ-3. If no packets are shown the sender has not sent any weather packets the latest 10 day(s).
| Time | Temp. | Humidity | Pressure | Rain* | Wind** | Luminosity | Snow |
|---|---|---|---|---|---|---|---|
| 1777592983 | 14.44° C | 75% | 1013.4 hPa | 0 mm | - | 21 W/m² | - |
| 1777592377 | 15° C | 73% | 1013.3 hPa | 0 mm | - | 32 W/m² | - |
| 1777591773 | 15° C | 70% | 1013.7 hPa | 0 mm | - | 38 W/m² | - |
| 1777591168 | 15.56° C | 68% | 1013.9 hPa | 0 mm | - | 67 W/m² | - |
| 1777590563 | 15.56° C | 64% | 1014.2 hPa | 0 mm | - | 75 W/m² | - |
| 1777589957 | 16.11° C | 62% | 1014 hPa | 0 mm | - | 79 W/m² | - |
| 1777589353 | 16.11° C | 59% | 1013.9 hPa | 0 mm | - | 91 W/m² | - |
| 1777588747 | 16.67° C | 47% | 1014.1 hPa | 0 mm | - | 95 W/m² | - |
| 1777588142 | 16.67° C | 49% | 1013.9 hPa | 0 mm | - | 116 W/m² | - |
| 1777587538 | 16.67° C | 53% | 1013.7 hPa | 0 mm | - | 122 W/m² | - |
| 1777586933 | 16.67° C | 48% | 1013.9 hPa | 0 mm | - | 115 W/m² | - |
| 1777586328 | 16.67° C | 50% | 1013.6 hPa | 0 mm | - | 130 W/m² | - |
| 1777585723 | 16.67° C | 47% | 1013.8 hPa | 0 mm | - | 121 W/m² | - |
| 1777585118 | 16.67° C | 51% | 1013.9 hPa | 0 mm | - | 167 W/m² | - |
| 1777584513 | 17.22° C | 49% | 1014 hPa | 0 mm | - | 255 W/m² | - |
| 1777583907 | 17.22° C | 51% | 1014 hPa | 0 mm | - | 260 W/m² | - |
| 1777583301 | 17.78° C | 49% | 1014.3 hPa | 0 mm | - | 256 W/m² | - |
| 1777582697 | 17.22° C | 51% | 1014.4 hPa | 0 mm | - | 309 W/m² | - |
| 1777582092 | 17.78° C | 48% | 1014.3 hPa | 0 mm | - | 251 W/m² | - |
| 1777581487 | 17.78° C | 48% | 1014.7 hPa | 0 mm | - | 333 W/m² | - |
| 1777580881 | 17.78° C | 51% | 1014.6 hPa | 0 mm | - | 344 W/m² | - |
| 1777580277 | 17.78° C | 49% | 1014.6 hPa | 0 mm | - | 362 W/m² | - |
| 1777579670 | 17.22° C | 51% | 1014.9 hPa | 0 mm | - | 337 W/m² | - |
| 1777579065 | 17.22° C | 47% | 1015 hPa | 0 mm | - | 342 W/m² | - |
| 1777578460 | 17.22° C | 51% | 1014.9 hPa | 0 mm | - | 369 W/m² | - |
* Rain latest hour (hover to see other rain measurements)
** Current wind speed in m/s (hover to see current wind gust speed)